Regional Weather Roundup
Issued by NWS

Home | Current Version | Previous Version | Graphics & Text | Print | Product List | Glossary On
Versions: 1 2 3 4 5 6 7 8 9 10 11 12 13 14 15 16 17 18 19 20 21 22 23 24 25 26 27 28 29 30 31 32 33 34 35 36 37 38 39 40 41 42 43 44 45 46 47 48 49 50
000
ASUS43 KLOT 180906
RWRIL

ILLINOIS REGIONAL WEATHER ROUNDUP
NATIONAL WEATHER SERVICE CHICAGO/ROMEOVILLE IL
400 AM CDT FRI APR 18 2014

NOTE: "FAIR" INDICATES FEW OR NO CLOUDS BELOW 12,000 FEET WITH NO
SIGNIFICANT WEATHER AND/OR OBSTRUCTIONS TO VISIBILITY.

* THESE STATIONS ARE NOT UNDER NWS QUALITY CONTROL. THEY ALSO MAY NOT
  REPORT WEATHER SUCH AS PRECIPITATION OR FOG.

ILZ001-002-007-009-015-016-024-181000-
NORTHWEST ILLINOIS

CITY           SKY/WX    TMP DP  RH WIND       PRES   REMARKS
MOLINE         CLEAR     37  31  78 CALM      30.30R
STERLING*      CLEAR     37  30  75 NE8       30.28S WCI  31
SAVANNA*       CLEAR     36  32  84 N3        30.29F
$$

ILZ003-004-008-010-011-017-018-181000-
NORTH CENTRAL ILLINOIS

CITY           SKY/WX    TMP DP  RH WIND       PRES   REMARKS
ROCKFORD       PTCLDY    38  32  79 N8        30.30R WCI  32
FREEPORT*      CLEAR     35  33  91 N3        30.31S
ROCHELLE*      CLEAR     34  32  91 N6        30.28S WCI  29
DE KALB*       CLEAR     36  33  89 N8        30.27R WCI  29
PERU*          CLEAR     40  35  83 N3        30.28R
$$

ILZ005-006-012>014-019>023-181000-
NORTHEAST ILLINOIS

CITY           SKY/WX    TMP DP  RH WIND       PRES   REMARKS
CHICAGO-OHARE  PTCLDY    44  36  73 NE10      30.24S
CHICAGO-MIDWAY MOCLDY    46  38  73 CALM      30.24S
AURORA         PTCLDY    37  34  89 NW7       30.26R FOG     WCI  32
LANSING*       CLOUDY    49  39  68 NW3       30.24S
WAUKEGAN       PTCLDY    40  34  79 N7        30.26S
DUPAGE AIRPORT PTCLDY    40  35  83 NW6       30.24S
KANKAKEE*      CLOUDY    47  42  81 CALM      30.26R
WHEELING       PTCLDY    43  36  76 NE6       30.27R
MORRIS*        PTCLDY    41  35  78 NW7       30.25R
ROMEOVILLE*    MOCLDY    42  36  80 NW5       30.25R
NORTHERLY ISL    N/A     45  38  76 CALM        N/A
$$

LMZ740>746-181000-
SOUTHERN LAKE MICHIGAN

STATION/POSITION SKY/WX   TEMP    WIND        PRES    VSBY  WAVE
                          AIR SEA DIR/SP/G                  HT/PER
                          (F)     (DEG/KT/KT) (MB)    (MI)  (FT/S)
WAUKEGAN HARBOR            42      10/ 12/ 15 1026.1R
HARRISON CRIB              44      10/ 10/ 16   N/A
BURNHAM HARBOR             44     340/  8       N/A
CALUMET HARBOR             46     300/  2/  2 1024.5F
MICHIGAN CITY              47     240/  3/  4   N/A
$$

ILZ025>027-034>036-040-047-049-050-058-095>099-181000-
WEST-CENTRAL ILLINOIS

CITY           SKY/WX    TMP DP  RH WIND       PRES   REMARKS
QUINCY         CLEAR     39  33  79 NW3       30.28S
GALESBURG*     CLEAR     30  30 100 NW5       30.28S FOG     WCI  26
MACOMB*        CLEAR     33  32  94 N3        30.30S
JACKSONVILLE*  CLOUDY    44  37  78 CALM      30.29R
PITTSFIELD*    CLEAR     42  38  87 CALM      30.29S
$$

ILZ028>032-037-038-041>044-048-051>054-059>061-181000-
CENTRAL ILLINOIS

CITY           SKY/WX    TMP DP  RH WIND       PRES   REMARKS
PONTIAC        CLOUDY    46  41  81 W6        30.26R
BLOOMINGTON    PTCLDY    45  35  67 NW3       30.28R
DECATUR        MOCLDY    48  39  71 N5        30.27R
PEORIA         CLOUDY    45  35  68 N5        30.27F
LACON*         CLEAR     37  34  89 CALM      30.27F
LINCOLN*       MOCLDY    46  38  75 CALM      30.28R
SPRINGFIELD    MOCLDY    47  38  71 CALM      30.28R
TAYLORVILLE    PTCLDY    41  37  87 N5        30.27S
$$

ILZ033-039-045-046-055>057-062-063-181000-
EAST-CENTRAL ILLINOIS

CITY           SKY/WX    TMP DP  RH WIND       PRES   REMARKS
CHAMPAIGN      CLOUDY    46  39  76 NW6       30.26S
RANTOUL*       CLOUDY    50  40  69 CALM      30.27R
MATTOON        CLOUDY    47  42  83 NE5       30.25S
PARIS*         MOCLDY    47  41  77 CALM      30.27R
$$

ILZ079-100>102-181000-
SOUTHWEST ILLINOIS

CITY           SKY/WX    TMP DP  RH WIND       PRES   REMARKS
ALTON          PTCLDY    47  39  74 CALM      30.28R
BELLEVILLE     CLOUDY    47  42  84 NW1       30.25S
CAHOKIA*       PTCLDY    49  41  74 N6        30.27R
SPARTA*        CLOUDY    50  43  76 CALM      30.26R
$$

ILZ064>066-069>071-074>076-080>082-084>086-088>090-092>094-181000-
SOUTH-CENTRAL ILLINOIS

CITY           SKY/WX    TMP DP  RH WIND       PRES   REMARKS
CARBONDALE     MOCLDY    44  42  93 SE3       30.26R
CAIRO*         MOCLDY    49  45  86 CALM      30.26R
MARION         PTCLDY    46  43  87 CALM      30.27R
MT. VERNON     CLOUDY    43  34  70 CALM      30.26S
CENTRALIA*       N/A     48  40  75 CALM      30.25S
SALEM*         CLOUDY    52  43  71 NE5       30.25S
METROPOLIS*    CLOUDY    46  42  86 CALM      30.25R
$$

ILZ067-068-072-073-078-083-087-091-181000-
SOUTHEAST ILLINOIS

CITY           SKY/WX    TMP DP  RH WIND       PRES   REMARKS
FAIRFIELD*     CLEAR     45  43  93 CALM      30.26S
HARRISBURG*    CLEAR     44  42  93 CALM      30.27S
ROBINSON*      PTCLDY    44  42  93 CALM      30.26F
CARMI*         CLEAR     45  44  96 NW3       30.26R
$$

ABBREVIATIONS USED IN REMARKS
   TC - TEMPERATURE IN CELSIUS
  WCI - WIND CHILL INDEX
   HX - HEAT INDEX
  VSB - VISIBILITY
$$




USA.gov is the U.S. government's official web portal to all federal, state and local government web resources and services.